SVR4659 URWW-UWLL

Flight info

Callsign SVR4659
Flight time 1h 1m
Altitude 39000
Route RODUN1E RODUN R807 UROBO P135 DAFOS T789 NEPNI NEPNI1E
Aircraft A319/M-SDE3FGHIRWY/LB1

Departure

Time 2026-04-30 18:47
Airport Volgograd International Airport (URWW)

Arrival

Time 2026-04-30 19:49
Airport Ulyanovsk Baratayevka Airport (UWLL)
Time Latitude Longitude Altitude Speed Heading
2026-04-30 18:33 48.79040 44.35400 472 ft 0 kts 339°
2026-04-30 18:40 48.79033 44.35405 474 ft 0 kts 339°
2026-04-30 18:40 48.79022 44.35412 474 ft 2 kts 321°
2026-04-30 18:40 48.79012 44.35428 473 ft 2 kts 301°
2026-04-30 18:40 48.79006 44.35450 473 ft 2 kts 278°
2026-04-30 18:41 48.79006 44.35472 474 ft 2 kts 256°
2026-04-30 18:41 48.79008 44.35483 474 ft 1 kts 244°
2026-04-30 18:41 48.79010 44.35489 474 ft 0 kts 247°
2026-04-30 18:45 48.78525 44.35147 469 ft 0 kts 241°
2026-04-30 18:47 48.78522 44.35139 469 ft 8 kts 243°
2026-04-30 18:47 48.78372 44.34648 461 ft 91 kts 244°
2026-04-30 18:47 48.77997 44.33467 440 ft 156 kts 244°
2026-04-30 18:47 48.77516 44.31961 1129 ft 157 kts 245°
2026-04-30 18:48 48.77059 44.30536 2047 ft 151 kts 244°
2026-04-30 18:48 48.76599 44.29113 2698 ft 158 kts 244°
2026-04-30 18:48 48.76098 44.27541 3223 ft 174 kts 245°
2026-04-30 18:48 48.75554 44.25830 3758 ft 190 kts 245°
2026-04-30 18:49 48.74956 44.23952 4296 ft 208 kts 245°
2026-04-30 18:49 48.74573 44.21749 4730 ft 231 kts 274°
2026-04-30 18:49 48.75093 44.19397 5322 ft 248 kts 306°
2026-04-30 18:49 48.76475 44.17784 6081 ft 261 kts 339°
2026-04-30 18:50 48.78267 44.17632 7035 ft 269 kts 12°
2026-04-30 18:50 48.79906 44.18968 7991 ft 278 kts 32°
2026-04-30 18:50 48.81465 44.20679 8875 ft 282 kts 31°
2026-04-30 18:50 48.83073 44.22399 9734 ft 287 kts 31°
2026-04-30 18:51 48.84707 44.24136 10577 ft 292 kts 31°
2026-04-30 18:51 48.86407 44.25933 11149 ft 307 kts 31°
2026-04-30 18:51 48.88202 44.27848 11619 ft 325 kts 31°
2026-04-30 18:51 48.90106 44.29886 12062 ft 342 kts 32°
2026-04-30 18:52 48.92095 44.32017 12633 ft 354 kts 31°
2026-04-30 18:52 48.94118 44.34185 13347 ft 361 kts 31°
2026-04-30 18:52 48.96178 44.36396 14043 ft 366 kts 32°
2026-04-30 18:52 48.98254 44.38629 14690 ft 372 kts 31°
2026-04-30 18:53 49.00402 44.40938 15319 ft 380 kts 32°
2026-04-30 18:53 49.02596 44.43305 15981 ft 387 kts 32°
2026-04-30 18:53 49.04780 44.45665 16665 ft 392 kts 32°
2026-04-30 18:53 49.07012 44.48078 17355 ft 396 kts 32°
2026-04-30 18:54 49.09235 44.50484 18018 ft 400 kts 32°
2026-04-30 18:54 49.11503 44.52939 18664 ft 405 kts 32°
2026-04-30 18:54 49.13835 44.55466 19305 ft 409 kts 32°
2026-04-30 18:54 49.16089 44.57912 19906 ft 412 kts 32°
2026-04-30 18:55 49.18459 44.60487 20512 ft 417 kts 32°
2026-04-30 18:55 49.23209 44.65656 21628 ft 425 kts 33°
2026-04-30 18:55 49.25610 44.68273 22160 ft 429 kts 33°
2026-04-30 18:56 49.30489 44.73605 23171 ft 436 kts 33°
2026-04-30 18:56 49.32978 44.76331 23660 ft 439 kts 33°
2026-04-30 18:56 49.35454 44.79044 24133 ft 442 kts 33°
2026-04-30 18:57 49.40456 44.84533 25039 ft 448 kts 32°
2026-04-30 18:57 49.42999 44.87328 25483 ft 451 kts 32°
2026-04-30 18:57 49.45362 44.89930 25895 ft 453 kts 32°
2026-04-30 18:58 49.50496 44.95594 26744 ft 459 kts 32°
2026-04-30 18:58 49.53092 44.98464 27157 ft 462 kts 32°
2026-04-30 18:58 49.55730 45.01385 27564 ft 465 kts 32°
2026-04-30 18:59 49.60999 45.07232 28334 ft 472 kts 33°
2026-04-30 19:00 49.69487 45.14838 29390 ft 473 kts 17°
2026-04-30 19:00 49.72598 45.16476 29725 ft 473 kts 12°
2026-04-30 19:00 49.78976 45.19237 30417 ft 479 kts 11°
2026-04-30 19:01 49.85425 45.21993 31107 ft 483 kts 11°
2026-04-30 19:01 49.88692 45.23418 31528 ft 483 kts 11°
2026-04-30 19:02 49.95120 45.26250 32310 ft 482 kts 11°
2026-04-30 19:02 50.01557 45.29059 32904 ft 481 kts
2026-04-30 19:03 50.08057 45.31363 33477 ft 478 kts
2026-04-30 19:03 50.14560 45.33544 33990 ft 478 kts
2026-04-30 19:04 50.21039 45.35734 34499 ft 477 kts
2026-04-30 19:04 50.27544 45.37957 35054 ft 476 kts
2026-04-30 19:05 50.33495 45.39994 35481 ft 475 kts
2026-04-30 19:05 50.39936 45.42209 35983 ft 474 kts
2026-04-30 19:06 50.46367 45.44425 36386 ft 476 kts
2026-04-30 19:06 50.49565 45.45530 36577 ft 476 kts
2026-04-30 19:06 50.56004 45.47757 36957 ft 476 kts
2026-04-30 19:07 50.62487 45.50006 37319 ft 477 kts
2026-04-30 19:07 50.65692 45.51120 37472 ft 478 kts
2026-04-30 19:08 50.72178 45.53381 37745 ft 479 kts
2026-04-30 19:08 50.78673 45.55653 37993 ft 481 kts 10°
2026-04-30 19:08 50.81956 45.56818 38103 ft 482 kts 10°
2026-04-30 19:09 50.88487 45.59164 38356 ft 484 kts 10°
2026-04-30 19:09 50.91735 45.60334 38484 ft 484 kts 10°
2026-04-30 19:09 50.95024 45.61519 38610 ft 485 kts 10°
2026-04-30 19:10 51.01586 45.64179 38848 ft 487 kts 15°
2026-04-30 19:10 51.07938 45.67983 39054 ft 490 kts 23°
2026-04-30 19:11 51.17199 45.74918 39096 ft 491 kts 25°
2026-04-30 19:12 51.23374 45.79601 39100 ft 491 kts 24°
2026-04-30 19:12 51.29517 45.84247 39098 ft 491 kts 24°
2026-04-30 19:13 51.41815 45.93571 39095 ft 490 kts 24°
2026-04-30 19:14 51.48173 45.97276 39096 ft 488 kts 16°
2026-04-30 19:14 51.54656 46.00435 39098 ft 488 kts 15°
2026-04-30 19:15 51.61143 46.03656 39097 ft 488 kts 16°
2026-04-30 19:15 51.70883 46.08598 39101 ft 489 kts 16°
2026-04-30 19:16 51.77358 46.11915 39098 ft 489 kts 16°
2026-04-30 19:17 51.87057 46.16907 39081 ft 489 kts 16°
2026-04-30 19:17 51.96703 46.21894 39068 ft 488 kts 17°
2026-04-30 19:18 52.06401 46.26932 39061 ft 488 kts 17°
2026-04-30 19:19 52.12865 46.30302 39064 ft 488 kts 17°
2026-04-30 19:19 52.22525 46.35357 39071 ft 488 kts 17°
2026-04-30 19:20 52.25778 46.37064 38808 ft 489 kts 17°
2026-04-30 19:20 52.29002 46.38759 38321 ft 487 kts 17°
2026-04-30 19:20 52.35471 46.42168 37101 ft 490 kts 17°
2026-04-30 19:21 52.38698 46.43873 36403 ft 494 kts 17°
2026-04-30 19:21 52.45216 46.47324 34924 ft 500 kts 17°
2026-04-30 19:22 52.51299 46.50550 33507 ft 503 kts 17°
2026-04-30 19:22 52.61104 46.55773 31328 ft 504 kts 17°
2026-04-30 19:23 52.70394 46.60753 29777 ft 495 kts 17°
2026-04-30 19:24 52.76897 46.64256 28770 ft 490 kts 16°
2026-04-30 19:24 52.80011 46.65934 28157 ft 488 kts 17°
2026-04-30 19:24 52.86519 46.69441 26815 ft 480 kts 17°
2026-04-30 19:25 52.95904 46.74527 24829 ft 469 kts 18°
2026-04-30 19:26 53.02036 46.77865 23510 ft 461 kts 18°
2026-04-30 19:26 53.08075 46.81162 22189 ft 453 kts 18°
2026-04-30 19:26 53.11067 46.82798 21558 ft 448 kts 18°
2026-04-30 19:27 53.16940 46.86018 20237 ft 441 kts 18°
2026-04-30 19:27 53.22606 46.89134 19201 ft 427 kts 18°
2026-04-30 19:28 53.25469 46.90712 18728 ft 420 kts 19°
2026-04-30 19:28 53.30932 46.93728 17875 ft 406 kts 19°
2026-04-30 19:29 53.36216 46.96654 17004 ft 396 kts 19°
2026-04-30 19:29 53.38835 46.98107 16573 ft 393 kts 19°
2026-04-30 19:30 53.46497 47.02369 15279 ft 382 kts 19°
2026-04-30 19:30 53.51490 47.05155 14402 ft 374 kts 19°
2026-04-30 19:31 53.56374 47.07875 13524 ft 365 kts 19°
2026-04-30 19:31 53.58765 47.09212 13087 ft 361 kts 19°
2026-04-30 19:31 53.63470 47.11853 12227 ft 353 kts 19°
2026-04-30 19:32 53.65785 47.13161 11801 ft 350 kts 19°
2026-04-30 19:32 53.68077 47.14457 11378 ft 346 kts 19°
2026-04-30 19:32 53.70344 47.15738 10964 ft 343 kts 19°
2026-04-30 19:32 53.72567 47.16995 10615 ft 337 kts 19°
2026-04-30 19:33 53.74752 47.18231 10470 ft 323 kts 19°
2026-04-30 19:33 53.76824 47.19443 10346 ft 310 kts 24°
2026-04-30 19:33 53.78628 47.21243 10222 ft 295 kts 41°
2026-04-30 19:33 53.80086 47.23626 10135 ft 283 kts 49°
2026-04-30 19:34 53.81401 47.26046 9957 ft 280 kts 49°
2026-04-30 19:34 53.82697 47.28469 9619 ft 279 kts 49°
2026-04-30 19:34 53.85297 47.33286 8973 ft 275 kts 49°
2026-04-30 19:35 53.86582 47.35647 8656 ft 273 kts 49°
2026-04-30 19:35 53.87880 47.38026 8336 ft 272 kts 49°
2026-04-30 19:35 53.89155 47.40364 8025 ft 270 kts 48°
2026-04-30 19:35 53.90417 47.42676 7720 ft 267 kts 48°
2026-04-30 19:36 53.91675 47.44980 7416 ft 265 kts 48°
2026-04-30 19:36 53.92913 47.47250 7113 ft 263 kts 48°
2026-04-30 19:36 53.95371 47.51761 6598 ft 254 kts 48°
2026-04-30 19:37 53.96549 47.53925 6341 ft 250 kts 48°
2026-04-30 19:37 53.97731 47.56096 6086 ft 246 kts 48°
2026-04-30 19:37 53.98875 47.58202 5841 ft 242 kts 48°
2026-04-30 19:37 54.00016 47.60302 5597 ft 238 kts 48°
2026-04-30 19:38 54.01120 47.62344 5367 ft 234 kts 47°
2026-04-30 19:38 54.02217 47.64364 5145 ft 230 kts 47°
2026-04-30 19:38 54.03307 47.66371 5104 ft 230 kts 48°
2026-04-30 19:38 54.04380 47.68353 5101 ft 231 kts 48°
2026-04-30 19:39 54.05470 47.70363 5100 ft 231 kts 48°
2026-04-30 19:39 54.06556 47.72377 5101 ft 231 kts 48°
2026-04-30 19:39 54.07637 47.74382 4942 ft 226 kts 48°
2026-04-30 19:39 54.08694 47.76340 4408 ft 225 kts 48°
2026-04-30 19:40 54.09743 47.78284 3868 ft 224 kts 48°
2026-04-30 19:40 54.10748 47.80147 3454 ft 205 kts 48°
2026-04-30 19:40 54.11720 47.81955 3423 ft 202 kts 48°
2026-04-30 19:40 54.12672 47.83728 3326 ft 202 kts 49°
2026-04-30 19:41 54.13583 47.85426 3200 ft 202 kts 49°
2026-04-30 19:41 54.14517 47.87170 2921 ft 194 kts 49°
2026-04-30 19:41 54.15409 47.88836 2616 ft 187 kts 49°
2026-04-30 19:41 54.16263 47.90466 2348 ft 178 kts 55°
2026-04-30 19:42 54.16598 47.92361 2115 ft 167 kts 104°
2026-04-30 19:42 54.16030 47.93968 2129 ft 160 kts 129°
2026-04-30 19:42 54.15308 47.95411 2121 ft 160 kts 127°
2026-04-30 19:42 54.14626 47.96916 2118 ft 160 kts 124°
2026-04-30 19:43 54.13988 47.98456 2118 ft 160 kts 122°
2026-04-30 19:43 54.13362 48.00065 2133 ft 168 kts 121°
2026-04-30 19:43 54.12715 48.01776 2130 ft 172 kts 121°
2026-04-30 19:44 54.11906 48.05460 2105 ft 170 kts 72°
2026-04-30 19:44 54.12553 48.07095 2130 ft 170 kts 40°
2026-04-30 19:44 54.13524 48.08235 2130 ft 170 kts 31°
2026-04-30 19:44 54.14552 48.09226 2122 ft 170 kts 30°
2026-04-30 19:45 54.15579 48.10236 2119 ft 170 kts 31°
2026-04-30 19:45 54.16584 48.11281 2120 ft 170 kts 33°
2026-04-30 19:45 54.17562 48.12335 2098 ft 158 kts 33°
2026-04-30 19:45 54.18435 48.13284 2145 ft 134 kts 33°
2026-04-30 19:46 54.19192 48.14108 2063 ft 127 kts 33°
2026-04-30 19:46 54.19929 48.14909 1910 ft 125 kts 33°
2026-04-30 19:46 54.20660 48.15699 1738 ft 124 kts 33°
2026-04-30 19:46 54.21384 48.16481 1569 ft 124 kts 33°
2026-04-30 19:47 54.22119 48.17284 1397 ft 124 kts 33°
2026-04-30 19:47 54.22596 48.17791 1283 ft 123 kts 33°
2026-04-30 19:47 54.23571 48.18854 1051 ft 123 kts 32°
2026-04-30 19:47 54.24292 48.19629 875 ft 123 kts 31°
2026-04-30 19:48 54.25030 48.20423 723 ft 124 kts 31°
2026-04-30 19:48 54.25759 48.21210 580 ft 124 kts 30°
2026-04-30 19:48 54.26491 48.21991 477 ft 123 kts 30°
2026-04-30 19:48 54.27084 48.22627 469 ft 68 kts 30°
2026-04-30 19:49 54.27481 48.23047 470 ft 65 kts 29°
2026-04-30 19:49 54.28183 48.23799 470 ft 31 kts 30°
2026-04-30 19:49 54.28298 48.23862 470 ft 13 kts 319°
2026-04-30 19:50 54.28350 48.23721 470 ft 14 kts 300°
2026-04-30 19:50 54.28383 48.23629 470 ft 0 kts 302°
2026-04-30 19:53 54.28393 48.23602 470 ft 6 kts 302°
2026-04-30 19:53 54.28420 48.23524 470 ft 8 kts 301°
2026-04-30 19:53 54.28455 48.23427 470 ft 10 kts 301°
2026-04-30 19:53 54.28497 48.23317 470 ft 10 kts 302°
2026-04-30 19:54 54.28535 48.23216 470 ft 7 kts 303°
2026-04-30 19:54 54.28561 48.23145 470 ft 5 kts 302°
2026-04-30 19:54 54.28591 48.23124 470 ft 6 kts 29°
2026-04-30 19:54 54.28629 48.23184 470 ft 8 kts 50°
2026-04-30 19:55 54.28617 48.23268 470 ft 8 kts 123°
2026-04-30 19:55 54.28612 48.23282 470 ft 0 kts 124°
2026-04-30 19:55 54.28608 48.23289 470 ft 1 kts 144°
2026-04-30 19:55 54.28589 48.23312 470 ft 4 kts 139°
2026-04-30 19:56 54.28577 48.23336 470 ft 0 kts 124°
2026-04-30 19:56 54.28572 48.23348 470 ft 3 kts 124°
2026-04-30 19:56 54.28571 48.23351 470 ft 0 kts 124°